TB1YZC-13 Weather Reports


time (UTC)temp
F
wind
direction
speed
knots
gust
knots
rain 1hr
in
rain 24hr
in
rain mn
in
humidity
%
barometer
mb
20260510045540 67 0 0.0 0.0 0.00 0.00 0.00 57 993.8
20260510045039 65 0 0.0 0.0 0.00 0.00 0.00 60 993.8
20260510044538 66 0 0.0 0.0 0.00 0.00 0.00 60 993.7
20260510044036 65 0 0.0 0.0 0.00 0.00 0.00 59 993.7
20260510043535 63 0 0.0 0.0 0.00 0.00 0.00 63 993.8
20260510043034 65 0 0.0 0.0 0.00 0.00 0.00 57 993.7
20260510042532 66 0 0.0 0.0 0.00 0.00 0.00 54 993.7
20260510042031 66 0 0.0 0.0 0.00 0.00 0.00 55 993.7
20260510041529 63 0 0.0 0.0 0.00 0.00 0.00 61 993.6
20260510041027 62 0 0.0 0.0 0.00 0.00 0.00 62 993.5
20260510040526 60 0 0.0 0.0 0.00 0.00 0.00 64 993.5
20260510040025 60 0 0.0 0.0 0.00 0.00 0.00 65 993.5
20260510035524 59 0 0.0 0.0 0.00 0.00 0.00 67 993.6
20260510035022 60 0 0.0 0.0 0.00 0.00 0.00 64 993.5
20260510034520 59 0 0.0 0.0 0.00 0.00 0.00 64 993.6
20260510034019 59 0 0.0 0.0 0.00 0.00 0.00 67 993.7
20260510033517 59 0 0.0 0.0 0.00 0.00 0.00 66 993.7
20260510033016 59 0 0.0 0.0 0.00 0.00 0.00 66 993.7
20260510032515 59 0 0.0 0.0 0.00 0.00 0.00 66 993.6
20260510032013 59 0 0.0 0.0 0.00 0.00 0.00 67 993.6
20260510031511 59 0 0.0 0.0 0.00 0.00 0.00 66 993.6
20260510031010 58 0 0.0 0.0 0.00 0.00 0.00 67 993.5
20260510030508 58 0 0.0 0.0 0.00 0.00 0.00 67 993.5
20260510030007 59 0 0.0 0.0 0.00 0.00 0.00 67 993.4
20260510025505 59 0 0.0 0.0 0.00 0.00 0.00 66 993.5
20260510025004 58 0 0.0 0.0 0.00 0.00 0.00 68 993.5
20260510024503 59 0 0.0 0.0 0.00 0.00 0.00 66 993.4
20260510024001 60 0 0.0 0.0 0.00 0.00 0.00 65 993.3
20260510023500 60 0 0.0 0.0 0.00 0.00 0.00 65 993.4
20260510022959 59 0 0.0 0.0 0.00 0.00 0.00 66 993.4
20260510022457 59 0 0.0 0.0 0.00 0.00 0.00 66 993.3
20260510021956 61 0 0.0 0.0 0.00 0.00 0.00 63 993.2
20260510021454 59 0 0.0 0.0 0.00 0.00 0.00 67 993.2
20260510020953 61 0 0.0 0.0 0.00 0.00 0.00 62 993.1
20260510020452 58 0 0.0 0.0 0.00 0.00 0.00 68 993.1
20260510015950 61 0 0.0 0.0 0.00 0.00 0.00 63 993.0
20260510015448 59 0 0.0 0.0 0.00 0.00 0.00 68 992.9
20260510014947 59 0 0.0 0.0 0.00 0.00 0.00 65 993.0
20260510014445 60 0 0.0 0.0 0.00 0.00 0.00 65 992.9
20260510013944 61 0 0.0 0.0 0.00 0.00 0.00 63 993.0
20260510013443 60 0 0.0 0.0 0.00 0.00 0.00 65 992.9
20260510012941 61 0 0.0 0.0 0.00 0.00 0.00 64 992.8
20260510012440 60 0 0.0 0.0 0.00 0.00 0.00 65 992.9
20260510011939 61 0 0.0 0.0 0.00 0.00 0.00 61 992.9
20260510011437 60 0 0.0 0.0 0.00 0.00 0.00 62 992.8
20260510010936 62 0 0.0 0.0 0.00 0.00 0.00 59 992.9
20260510010434 62 0 0.0 0.0 0.00 0.00 0.00 60 992.9
20260510005933 62 0 0.0 0.0 0.00 0.00 0.00 60 992.9
20260510005431 61 0 0.0 0.0 0.00 0.00 0.00 60 993.1
20260510004930 62 0 0.0 0.0 0.00 0.00 0.00 60 993.1
20260510004428 61 0 0.0 0.0 0.00 0.00 0.00 60 993.1
20260510003928 62 0 0.0 0.0 0.00 0.00 0.00 60 993.0
20260510003425 62 0 0.0 0.0 0.00 0.00 0.00 60 993.0
20260510002925 64 0 0.0 0.0 0.00 0.00 0.00 58 992.8
20260510002423 65 0 0.0 0.0 0.00 0.00 0.00 56 992.8
20260510001921 64 0 0.0 0.0 0.00 0.00 0.00 56 992.7
20260510001419 64 0 0.0 0.0 0.00 0.00 0.00 55 992.8
20260510000918 64 0 0.0 0.0 0.00 0.00 0.00 57 992.9
20260510000418 64 0 0.0 0.0 0.00 0.00 0.00 57 992.9
20260509235915 64 0 0.0 0.0 0.00 0.00 0.00 57 993.0
20260509235413 65 0 0.0 0.0 0.00 0.00 0.00 56 992.9
20260509234912 64 0 0.0 0.0 0.00 0.00 0.00 58 992.9
20260509234411 64 0 0.0 0.0 0.00 0.00 0.00 58 992.9
20260509233909 63 0 0.0 0.0 0.00 0.00 0.00 60 993.0
20260509233407 63 0 0.0 0.0 0.00 0.00 0.00 59 993.0
20260509232906 66 0 0.0 0.0 0.00 0.00 0.00 55 993.0
20260509232405 65 0 0.0 0.0 0.00 0.00 0.00 57 993.1
20260509231903 64 0 0.0 0.0 0.00 0.00 0.00 56 993.2
20260509231402 65 0 0.0 0.0 0.00 0.00 0.00 55 993.2
20260509230901 67 0 0.0 0.0 0.00 0.00 0.00 53 993.3
20260509230359 65 0 0.0 0.0 0.00 0.00 0.00 56 993.3
20260509225857 65 0 0.0 0.0 0.00 0.00 0.00 55 993.3
20260509225356 65 0 0.0 0.0 0.00 0.00 0.00 55 993.3
20260509224855 65 0 0.0 0.0 0.00 0.00 0.00 56 993.4
20260509224353 66 0 0.0 0.0 0.00 0.00 0.00 55 993.4
20260509223852 65 0 0.0 0.0 0.00 0.00 0.00 56 993.4
20260509223351 66 0 0.0 0.0 0.00 0.00 0.00 55 993.4
20260509222849 66 0 0.0 0.0 0.00 0.00 0.00 55 993.4
20260509222347 66 0 0.0 0.0 0.00 0.00 0.00 56 993.4
20260509221846 66 0 0.0 0.0 0.00 0.00 0.00 56 993.4
20260509221344 65 0 0.0 0.0 0.00 0.00 0.00 56 993.5
20260509220843 68 0 0.0 0.0 0.00 0.00 0.00 54 993.5
20260509220342 67 0 0.0 0.0 0.00 0.00 0.00 55 993.6
20260509215840 67 0 0.0 0.0 0.00 0.00 0.00 54 993.6
20260509215339 68 0 0.0 0.0 0.00 0.00 0.00 54 993.6
20260509214838 66 0 0.0 0.0 0.00 0.00 0.00 58 993.6
20260509214336 67 0 0.0 0.0 0.00 0.00 0.00 56 993.6
20260509214006 65 0 0.0 0.0 0.00 0.00 0.00 60 993.7
20260509213505 65 0 0.0 0.0 0.00 0.00 0.00 61 993.6
20260509213003 65 0 0.0 0.0 0.00 0.00 0.00 60 993.6
20260509212502 66 0 0.0 0.0 0.00 0.00 0.00 58 993.6
20260509212001 66 0 0.0 0.0 0.00 0.00 0.00 58 993.5
20260509211500 68 0 0.0 0.0 0.00 0.00 0.00 56 993.6
20260509210958 65 0 0.0 0.0 0.00 0.00 0.00 61 993.7
20260509210536 66 0 0.0 0.0 0.00 0.00 0.00 60 993.6
20260509210035 66 0 0.0 0.0 0.00 0.00 0.00 61 993.6
20260509205534 69 0 0.0 0.0 0.00 0.00 0.00 56 993.6
20260509205032 67 0 0.0 0.0 0.00 0.00 0.00 59 993.7
20260509204531 66 0 0.0 0.0 0.00 0.00 0.00 61 993.7
20260509204030 67 0 0.0 0.0 0.00 0.00 0.00 59 993.6
20260509203835 67 0 0.0 0.0 0.00 0.00 0.00 58 993.6
20260509203258 67 0 0.0 0.0 0.00 0.00 0.00 59 993.6
20260509202957 68 0 0.0 0.0 0.00 0.00 0.00 58 993.6
20260509202655 68 0 0.0 0.0 0.00 0.00 0.00 58 993.6
20260509202354 69 0 0.0 0.0 0.00 0.00 0.00 56 993.6
20260509202052 67 0 0.0 0.0 0.00 0.00 0.00 58 993.7
20260509201750 80 0 0.0 0.0 0.00 0.00 0.00 52 993.7
20260509201548 82 0 0.0 0.0 0.00 0.00 0.00 49 993.6
20260509201247 81 0 0.0 0.0 0.00 0.00 0.00 51 993.6
20260509200946 79 0 0.0 0.0 0.00 0.00 0.00 54 993.6
20260509200645 79 0 0.0 0.0 0.00 0.00 0.00 55 993.6
20260509200422 79 0 0.0 0.0 0.00 0.00 0.00 55 993.6
20260509200045 78 0 0.0 0.0 0.00 0.00 0.00 56 993.5
20260509195738 80 0 0.0 0.0 0.00 0.00 0.00 51 993.5
20260509195437 79 0 0.0 0.0 0.00 0.00 0.00 53 993.5
20260509195136 80 0 0.0 0.0 0.00 0.00 0.00 53 993.5
20260509194923 80 0 0.0 0.0 0.00 0.00 0.00 53 993.5
20260509194533 79 0 0.0 0.0 0.00 0.00 0.00 53 993.6
20260509194232 78 0 0.0 0.0 0.00 0.00 0.00 55 993.5
20260509193931 80 0 0.0 0.0 0.00 0.00 0.00 53 993.5
20260509193630 80 0 0.0 0.0 0.00 0.00 0.00 54 993.5
20260509193329 79 0 0.0 0.0 0.00 0.00 0.00 54 993.5
20260509193028 79 0 0.0 0.0 0.00 0.00 0.00 56 993.6
20260509192727 78 0 0.0 0.0 0.00 0.00 0.00 58 993.6
20260509191525 80 0 0.0 0.0 0.00 0.00 0.00 55 993.5
20260509190633 67 0 0.0 0.0 0.00 0.00 0.00 58 993.5
20260509190133 68 0 0.0 0.0 0.00 0.00 0.00 57 993.4
20260509185633 67 0 0.0 0.0 0.00 0.00 0.00 58 993.4
20260509185132 68 0 0.0 0.0 0.00 0.00 0.00 58 993.3
20260509184632 67 0 0.0 0.0 0.00 0.00 0.00 59 993.2
20260509184132 68 0 0.0 0.0 0.00 0.00 0.00 57 993.2
20260509183632 69 0 0.0 0.0 0.00 0.00 0.00 55 993.2
20260509183131 68 0 0.0 0.0 0.00 0.00 0.00 56 993.1
20260509182631 67 0 0.0 0.0 0.00 0.00 0.00 57 993.1
20260509182131 67 0 0.0 0.0 0.00 0.00 0.00 58 993.1
20260509181630 69 0 0.0 0.0 0.00 0.00 0.00 55 993.0
20260509181130 69 0 0.0 0.0 0.00 0.00 0.00 56 992.9
20260509180630 67 0 0.0 0.0 0.00 0.00 0.00 57 992.9
20260509180129 68 0 0.0 0.0 0.00 0.00 0.00 57 992.8
20260509175629 67 0 0.0 0.0 0.00 0.00 0.00 57 992.7
20260509174412 68 0 0.0 0.0 0.00 0.00 0.00 56 992.7
20260509174111 69 0 0.0 0.0 0.00 0.00 0.00 55 992.7
20260509173811 69 0 0.0 0.0 0.00 0.00 0.00 54 992.6
20260509173510 69 0 0.0 0.0 0.00 0.00 0.00 54 992.6
20260509173210 71 0 0.0 0.0 0.00 0.00 0.00 52 992.5
20260509171227 79 0 0.0 0.0 0.00 0.00 0.00 47 992.6
20260509170250 82 0 0.0 0.0 0.00 0.00 0.00 40 992.5
20260509165949 79 0 0.0 0.0 0.00 0.00 0.00 45 992.5
20260509165649 79 0 0.0 0.0 0.00 0.00 0.00 45 992.5
20260509165349 84 0 0.0 0.0 0.00 0.00 0.00 38 992.5
20260509165049 84 0 0.0 0.0 0.00 0.00 0.00 38 992.5
20260509164749 83 0 0.0 0.0 0.00 0.00 0.00 39 992.5
20260509164449 83 0 0.0 0.0 0.00 0.00 0.00 39 992.4
20260509164149 80 0 0.0 0.0 0.00 0.00 0.00 43 992.4
20260509163849 79 0 0.0 0.0 0.00 0.00 0.00 43 992.4
20260509163548 80 0 0.0 0.0 0.00 0.00 0.00 43 992.3
20260509163248 81 0 0.0 0.0 0.00 0.00 0.00 42 992.3
20260509162948 79 0 0.0 0.0 0.00 0.00 0.00 44 992.3
20260509162647 78 0 0.0 0.0 0.00 0.00 0.00 46 992.3
20260509162347 80 0 0.0 0.0 0.00 0.00 0.00 44 992.3
20260509162047 80 0 0.0 0.0 0.00 0.00 0.00 44 992.3
20260509161747 80 0 0.0 0.0 0.00 0.00 0.00 42 992.2
20260509161447 79 0 0.0 0.0 0.00 0.00 0.00 44 992.2
20260509161147 79 0 0.0 0.0 0.00 0.00 0.00 46 992.2
20260509160846 82 0 0.0 0.0 0.00 0.00 0.00 42 992.1
20260509160546 81 0 0.0 0.0 0.00 0.00 0.00 44 992.1
20260509160245 81 0 0.0 0.0 0.00 0.00 0.00 43 992.1
20260509155945 80 0 0.0 0.0 0.00 0.00 0.00 44 992.1
20260509155645 81 0 0.0 0.0 0.00 0.00 0.00 43 992.1
20260509155345 83 0 0.0 0.0 0.00 0.00 0.00 41 992.2
20260509155044 82 0 0.0 0.0 0.00 0.00 0.00 43 992.1
20260509154744 82 0 0.0 0.0 0.00 0.00 0.00 43 992.2
20260509154444 80 0 0.0 0.0 0.00 0.00 0.00 45 992.2
20260509154144 80 0 0.0 0.0 0.00 0.00 0.00 45 992.2
20260509153844 80 0 0.0 0.0 0.00 0.00 0.00 45 992.1
20260509153815 80 0 0.0 0.0 0.00 0.00 0.00 45 992.1
20260509153800 80 0 0.0 0.0 0.00 0.00 0.00 46 992.1
20260509153717 79 0 0.0 0.0 0.00 0.00 0.00 47 992.1
20260509153201 81 0 0.0 0.0 0.00 0.00 0.00 44 992.1
20260509152901 80 0 0.0 0.0 0.00 0.00 0.00 47 992.1
20260509152714 78 0 0.0 0.0 0.00 0.00 0.00 50 992.1
20260509151645 81 0 0.0 0.0 0.00 0.00 0.00 43 992.1
20260509151345 81 0 0.0 0.0 0.00 0.00 0.00 44 992.1
20260509151045 81 0 0.0 0.0 0.00 0.00 0.00 44 992.1
20260509150745 79 0 0.0 0.0 0.00 0.00 0.00 45 992.2
20260509150445 80 0 0.0 0.0 0.00 0.00 0.00 44 992.2
20260509150145 79 0 0.0 0.0 0.00 0.00 0.00 45 992.2
20260509145257 82 0 0.0 0.0 0.00 0.00 0.00 41 992.2
20260509144957 79 0 0.0 0.0 0.00 0.00 0.00 45 992.2
20260509144507 73 0 0.0 0.0 0.00 0.00 0.00 46 992.2
20260509144207 73 0 0.0 0.0 0.00 0.00 0.00 47 992.3
20260509143907 74 0 0.0 0.0 0.00 0.00 0.00 46 992.3
20260509143132 79 0 0.0 0.0 0.00 0.00 0.00 45 992.2
20260509135742 214 0 0.0 0.0 0.00 0.00 0.00 100 2147.4
20260509135102 84 0 0.0 0.0 0.00 0.00 0.00 36 992.3
20260509134435 86 0 0.0 0.0 0.00 0.00 0.00 35 992.3
20260509134132 83 0 0.0 0.0 0.00 0.00 0.00 38 992.3
20260509133829 84 0 0.0 0.0 0.00 0.00 0.00 37 992.3
20260509133529 82 0 0.0 0.0 0.00 0.00 0.00 41 992.2